Tracking 31027 objects as of 19-Jul-2025
HD Live streaming from Space Station
objects crossing your sky now

DELTA 1 DEB

Track DELTA 1 DEB now!
10-day predictions


NORAD ID: 13539
Int'l Code: 1976-077EM
Perigee: 1,510.7 km
Apogee: 2,182.7 km
Inclination: 101.9 °
Period: 123.6 minutes
Semi major axis: 8217 km
RCS: 0.0923 m2 (small)
Launch date: July 29, 1976
Source: United States (US)
Launch site: AIR FORCE WESTERN TEST RANGE (AFWTR)

Note: This is SATELLITE DEBRIS
Your satellite tracking list
SL-8 DEB
Track 1 satellite(s)




NASA's NSSDC Master Catalog

Two Line Element Set (TLE):
1 13539U 76077EM  25197.80417484  .00000158  00000-0  29551-2 0  9996
2 13539 101.8787 316.0308 0408862 245.9642 274.1314 11.65411614914686
Source of the keplerian elements: AFSPC